EW9451 Weather Reports


time (UTC)temp
C
wind
direction
speed
KPH
gust
KPH
rain 1hr
cm
rain 24hr
cm
rain mn
cm
humidity
%
barometer
mb
20260507151534 8 302 9.7 20.9 0.00 0.84 0.00 57 1003.2
20260507151034 8 313 8.0 17.7 0.00 0.84 0.00 68 1003.3
20260507150536 7 326 8.0 24.1 0.00 1.02 0.00 63 1003.2
20260507150034 7 315 6.4 24.1 0.00 1.02 0.00 61 1003.2
20260507145533 7 239 12.9 24.1 0.00 1.02 0.00 59 1003.0
20260507145033 7 321 9.7 24.1 0.00 1.02 0.00 59 1003.1
20260507144544 8 310 9.7 20.9 0.00 1.02 0.00 66 1003.0
20260507144036 7 313 6.4 20.9 0.00 1.02 0.00 66 1003.2
20260507143530 7 259 8.0 20.9 0.00 1.02 0.00 64 1003.1
20260507143033 7 280 4.8 20.9 0.00 1.02 0.00 67 1003.2
20260507142530 7 323 6.4 19.3 0.00 1.02 0.00 69 1003.2
20260507142027 7 315 9.7 20.9 0.00 1.02 0.00 67 1003.2
20260507141529 7 328 11.3 20.9 0.00 1.02 0.00 76 1003.0
20260507141027 6 341 6.4 25.7 0.00 1.02 0.00 69 1003.2
20260507140526 6 360 8.0 25.7 0.00 1.04 0.00 69 1003.1
20260507140027 6 324 3.2 14.5 0.00 1.04 0.00 72 1003.3
20260507135523 6 351 4.8 16.1 0.00 1.04 0.00 71 1003.3
20260507135023 6 360 6.4 16.1 0.00 1.04 0.00 69 1003.4
20260507134523 6 311 3.2 16.1 0.00 1.04 0.00 74 1003.3
20260507134024 6 240 6.4 20.9 0.00 1.04 0.00 73 1003.2
20260507133521 5 282 8.0 20.9 0.00 1.04 0.00 73 1003.3
20260507133021 5 296 11.3 25.7 0.00 1.04 0.00 76 1003.3
20260507132519 5 319 11.3 25.7 0.00 1.04 0.00 72 1003.4
20260507132018 5 265 12.9 24.1 0.00 1.04 0.00 76 1003.2
20260507131517 6 315 8.0 19.3 0.00 1.04 0.00 85 1003.2
20260507131018 5 281 8.0 19.3 0.00 1.04 0.00 82 1003.1
20260507130516 5 360 4.8 22.5 0.00 1.17 0.00 79 1003.1
20260507130027 5 292 6.4 22.5 0.00 1.17 0.00 86 1003.2
20260507125513 5 194 8.0 22.5 0.00 1.17 0.00 83 1003.3
20260507125012 5 346 9.7 22.5 0.00 1.17 0.00 84 1003.1
20260507124516 5 348 8.0 16.1 0.00 1.17 0.00 86 1003.2
20260507124010 5 342 1.6 9.7 0.00 1.17 0.00 89 1003.1
20260507123511 5 305 3.2 12.9 0.00 1.17 0.00 89 1003.2
20260507123009 5 319 4.8 12.9 0.00 1.17 0.00 90 1003.2
20260507122507 5 317 4.8 19.3 0.00 1.17 0.00 90 1003.2
20260507122008 5 316 6.4 19.3 0.00 1.17 0.00 91 1003.3
20260507121508 4 302 4.8 12.9 0.00 1.17 0.00 93 1003.1
20260507121006 4 302 0.0 8.0 0.00 1.17 0.00 95 1003.2
20260507120505 4 321 3.2 14.5 0.00 1.32 0.00 94 1003.1
20260507120011 4 298 6.4 14.5 0.00 1.32 0.00 95 1003.1
20260507115506 5 307 3.2 9.7 0.00 1.32 0.00 97 1003.1
20260507115006 5 322 3.2 9.7 0.00 1.32 0.00 97 1003.0
20260507114503 4 339 4.8 9.7 0.00 1.32 0.00 97 1002.8
20260507114003 4 148 0.0 4.8 0.00 1.32 0.00 97 1002.7
20260507113504 4 296 3.2 8.0 0.00 1.32 0.00 97 1002.7
20260507113004 5 292 3.2 9.7 0.00 1.32 0.00 98 1002.6
20260507112505 5 193 0.0 11.3 0.00 1.32 0.00 98 1002.5
20260507112005 5 44 3.2 11.3 0.00 1.32 0.00 98 1002.7
20260507111507 5 336 1.6 8.0 0.00 1.32 0.00 98 1002.7
20260507111001 5 334 3.2 8.0 0.00 1.32 0.00 98 1002.8
20260507110501 5 180 0.0 11.3 0.00 1.37 0.00 98 1002.7
20260507110002 5 252 1.6 11.3 0.00 1.37 0.00 98 1002.8
20260507105600 4 263 4.8 9.7 0.00 1.37 0.00 98 1002.7
20260507105100 4 174 0.0 4.8 0.00 1.37 0.00 98 1002.6
20260507104602 4 213 0.0 3.2 0.00 1.37 0.00 98 1002.5
20260507104100 4 309 0.0 3.2 0.00 1.37 0.00 98 1002.4
20260507103602 4 194 0.0 3.2 0.00 1.37 0.00 98 1002.3
20260507103059 4 192 0.0 3.2 0.00 1.37 0.00 98 1002.2
20260507102600 4 203 0.0 3.2 0.00 1.37 0.00 98 1002.1
20260507102058 4 203 0.0 3.2 0.00 1.37 0.00 98 1002.2
20260507101634 4 203 0.0 3.2 0.00 1.37 0.00 98 1002.2
20260507101058 4 203 0.0 1.6 0.00 1.37 0.00 98 1002.2
20260507100558 4 203 0.0 1.6 0.00 1.37 0.00 98 1002.3
20260507100100 4 203 0.0 0.0 0.00 1.45 0.00 98 1002.3
20260507095557 4 203 0.0 0.0 0.00 1.45 0.00 98 1002.3
20260507095056 4 203 0.0 0.0 0.00 1.45 0.00 98 1002.2
20260507094557 4 203 0.0 1.6 0.00 1.45 0.00 98 1002.3
20260507094057 4 203 0.0 1.6 0.00 1.45 0.00 98 1002.2
20260507093557 4 203 0.0 1.6 0.00 1.45 0.00 98 1002.1
20260507093059 4 203 0.0 1.6 0.00 1.45 0.00 98 1002.1
20260507092556 4 203 0.0 0.0 0.00 1.45 0.00 98 1002.0
20260507092058 4 203 0.0 1.6 0.00 1.45 0.00 98 1002.1
20260507091556 4 203 0.0 1.6 0.00 1.45 0.00 98 1002.1
20260507091055 4 203 0.0 1.6 0.00 1.45 0.00 98 1002.1
20260507090555 4 203 0.0 1.6 0.00 1.45 0.00 98 1002.2
20260507090106 4 203 0.0 3.2 0.00 1.52 0.00 98 1002.1
20260507085555 4 203 0.0 3.2 0.00 1.52 0.00 98 1002.1
20260507085054 3 143 0.0 4.8 0.00 1.52 0.00 98 1002.1
20260507084555 3 142 1.6 4.8 0.00 1.52 0.00 98 1002.1
20260507084053 3 136 0.0 4.8 0.00 1.52 0.00 98 1002.1
20260507083554 3 136 1.6 4.8 0.00 1.52 0.00 98 1002.1
20260507083054 3 157 0.0 3.2 0.00 1.52 0.00 98 1002.3
20260507082556 3 157 0.0 3.2 0.00 1.52 0.00 98 1002.5
20260507082055 3 157 0.0 3.2 0.00 1.52 0.00 98 1002.5
20260507081553 3 157 0.0 3.2 0.00 1.52 0.00 98 1002.5
20260507081055 3 157 0.0 3.2 0.00 1.52 0.00 98 1002.5
20260507080553 3 155 0.0 4.8 0.00 1.52 0.00 97 1002.5
20260507080052 3 155 1.6 4.8 0.00 1.68 0.00 97 1002.6
20260507075554 3 117 0.0 3.2 0.00 1.68 0.00 97 1002.6
20260507075050 3 146 1.6 4.8 0.00 1.68 0.00 97 1002.6
20260507074555 3 132 1.6 4.8 0.00 1.68 0.00 97 1002.7
20260507074048 3 132 1.6 3.2 0.00 1.68 0.00 97 1002.7
20260507073548 3 132 0.0 3.2 0.00 1.68 0.00 97 1002.8
20260507073048 3 132 1.6 4.8 0.00 1.68 0.00 97 1002.8
20260507072548 3 132 0.0 4.8 0.00 1.68 0.00 97 1002.7
20260507072047 3 248 0.0 3.2 0.00 1.68 0.00 97 1002.6
20260507071547 3 283 0.0 1.6 0.00 1.68 0.00 97 1002.4
20260507071047 3 283 0.0 3.2 0.00 1.68 0.00 97 1002.4
20260507070546 3 282 0.0 3.2 0.00 1.68 0.00 97 1002.4
20260507070050 3 282 0.0 3.2 0.00 1.85 0.00 97 1002.3
20260507065545 3 280 0.0 3.2 0.00 1.85 0.00 97 1002.2
20260507065045 3 134 0.0 6.4 0.00 1.85 0.00 97 1002.1
20260507064603 3 134 1.6 6.4 0.00 1.85 0.00 97 1002.1
20260507064044 3 270 1.6 4.8 0.00 1.85 0.00 97 1002.2
20260507063543 3 169 0.0 4.8 0.00 1.85 0.00 97 1002.1
20260507063047 3 103 1.6 3.2 0.00 1.85 0.00 97 1002.1
20260507062544 3 323 0.0 1.6 0.00 1.85 0.00 97 1002.0
20260507062142 3 323 0.0 1.6 0.00 1.85 0.00 97 1002.1
20260507061542 3 323 0.0 3.2 0.00 1.85 0.00 97 1002.3
20260507061041 3 323 0.0 3.2 0.00 1.85 0.00 97 1002.4
20260507060541 3 323 1.6 3.2 0.00 1.96 0.00 97 1002.4
20260507060040 3 323 0.0 1.6 0.00 1.96 0.00 97 1002.3
20260507055639 3 323 0.0 3.2 0.00 1.96 0.00 97 1002.5
20260507055038 3 323 0.0 3.2 0.00 1.96 0.00 97 1002.4
20260507054541 3 323 0.0 3.2 0.00 1.96 0.00 97 1002.4
20260507054042 3 323 0.0 3.2 0.00 1.96 0.00 97 1002.4
20260507053537 3 323 0.0 3.2 0.00 1.96 0.00 97 1002.3
20260507053037 3 323 0.0 0.0 0.00 1.96 0.00 97 1002.5
20260507052538 3 323 0.0 1.6 0.00 1.96 0.00 96 1002.6
20260507052035 3 323 0.0 1.6 0.00 1.96 0.00 96 1002.6
20260507051535 3 323 0.0 0.0 0.00 1.96 0.00 96 1002.6
20260507051034 3 323 0.0 1.6 0.00 1.96 0.00 96 1002.7
20260507050532 3 323 0.0 1.6 0.00 2.06 0.00 96 1002.7
20260507050038 3 323 1.6 1.6 0.00 2.06 0.00 96 1003.0
20260507045532 3 323 0.0 1.6 0.00 2.06 0.00 96 1003.0
20260507045029 3 323 0.0 1.6 0.00 2.06 0.00 96 1003.1
20260507044528 3 323 0.0 1.6 0.00 2.06 0.00 96 1003.0
20260507044027 4 323 0.0 1.6 0.00 2.06 0.00 96 1003.0
20260507043526 4 323 0.0 0.0 0.00 2.06 0.00 96 1003.0
20260507043026 4 323 0.0 0.0 0.00 2.06 0.00 96 1003.1
20260507042525 4 323 0.0 1.6 0.00 2.06 0.00 96 1003.1
20260507042025 4 323 0.0 1.6 0.00 2.06 0.00 96 1003.0
20260507041539 4 323 0.0 0.0 0.00 2.06 0.00 97 1003.1
20260507041024 4 323 0.0 0.0 0.00 2.06 0.00 97 1003.0
20260507040527 4 323 0.0 0.0 0.00 2.26 2.06 96 1003.1
20260507040023 4 323 0.0 0.0 0.00 2.26 2.06 96 1003.0
20260507035522 4 323 0.0 0.0 0.00 2.26 2.06 96 1003.1
20260507035022 4 323 0.0 0.0 0.00 2.26 2.06 96 1003.2
20260507034520 4 323 0.0 0.0 0.00 2.26 2.06 96 1002.9
20260507034020 5 323 0.0 0.0 0.00 2.26 2.06 96 1003.1
20260507033519 5 323 0.0 0.0 0.00 2.26 2.06 96 1003.0
20260507033019 5 323 0.0 0.0 0.00 2.26 2.06 96 1003.1
20260507032517 5 323 0.0 0.0 0.00 2.26 2.06 96 1003.2
20260507032019 5 323 0.0 0.0 0.00 2.26 2.06 96 1003.2
20260507031517 5 323 0.0 0.0 0.00 2.26 2.06 96 1003.3
20260507031017 5 323 0.0 0.0 0.00 2.26 2.06 96 1003.3
20260507030516 5 323 0.0 0.0 0.00 2.29 2.06 96 1003.3
20260507030017 5 323 0.0 0.0 0.00 2.29 2.06 96 1003.3
20260507025522 5 323 0.0 0.0 0.00 2.29 2.06 97 1003.3
20260507025015 5 323 0.0 0.0 0.00 2.29 2.06 96 1003.3
20260507024515 5 323 0.0 0.0 0.00 2.29 2.06 97 1003.3
20260507024019 5 323 0.0 0.0 0.00 2.29 2.06 97 1003.2
20260507023514 5 323 0.0 0.0 0.00 2.29 2.06 97 1003.3
20260507023015 5 323 0.0 3.2 0.00 2.29 2.06 97 1003.3
20260507022514 5 323 0.0 3.2 0.00 2.29 2.06 97 1003.2
20260507022014 5 323 0.0 3.2 0.00 2.29 2.06 97 1003.1
20260507021514 5 323 0.0 3.2 0.00 2.29 2.06 97 1003.2
20260507021013 5 323 0.0 1.6 0.00 2.29 2.06 97 1003.2
20260507020514 5 323 0.0 1.6 0.00 2.39 2.06 97 1003.0
20260507020014 5 323 0.0 1.6 0.00 2.39 2.06 97 1002.9
20260507015513 5 323 0.0 1.6 0.00 2.39 2.06 97 1003.2
20260507015013 5 323 0.0 1.6 0.00 2.39 2.06 97 1003.3
20260507014524 5 323 0.0 3.2 0.00 2.39 2.06 97 1003.5
20260507014012 5 323 1.6 3.2 0.00 2.39 2.06 97 1003.4
20260507013512 5 333 0.0 1.6 0.00 2.39 2.06 97 1003.0
20260507013030 5 333 0.0 1.6 0.00 2.39 2.06 97 1003.2
20260507012515 5 317 0.0 3.2 0.00 2.39 2.06 97 1003.4
20260507012016 5 317 0.0 3.2 0.00 2.39 2.06 97 1003.4
20260507011526 5 317 1.6 3.2 0.00 2.39 2.06 97 1003.5
20260507011011 5 317 0.0 3.2 0.00 2.39 2.06 97 1003.3
20260507010511 5 317 0.0 3.2 0.03 2.39 2.06 96 1003.2
20260507010011 5 317 0.0 3.2 0.03 2.39 2.06 96 1003.2
20260507005511 5 301 0.0 3.2 0.03 2.39 2.06 96 1003.1
20260507005010 5 301 0.0 3.2 0.03 2.39 2.06 96 1003.1
20260507004513 5 301 0.0 3.2 0.03 2.39 2.06 96 1003.1
20260507004010 5 290 0.0 3.2 0.03 2.39 2.06 97 1003.0
20260507003510 5 298 0.0 1.6 0.03 2.39 2.06 97 1003.0
20260507003009 5 298 0.0 1.6 0.03 2.39 2.06 96 1003.0
20260507002510 5 298 0.0 0.0 0.03 2.39 2.06 96 1002.9
20260507002009 5 298 0.0 0.0 0.03 2.39 2.06 96 1002.8
20260507001509 5 298 0.0 3.2 0.03 2.39 2.06 96 1002.7
20260507001010 5 298 0.0 3.2 0.00 2.36 2.03 96 1002.6
20260507000516 5 298 1.6 4.8 0.03 2.36 2.03 96 1002.5
20260507000020 5 5 0.0 4.8 0.03 2.36 2.03 96 1002.4
20260506235508 5 296 0.0 3.2 0.03 2.36 2.03 96 1002.2
20260506235009 5 296 0.0 3.2 0.03 2.36 2.03 96 1002.2
20260506234508 5 296 0.0 3.2 0.03 2.36 2.03 96 1002.1
20260506234007 5 308 0.0 3.2 0.03 2.36 2.03 96 1002.1
20260506233509 5 308 1.6 4.8 0.03 2.36 2.03 96 1002.1
20260506233008 5 308 1.6 4.8 0.03 2.36 2.03 96 1002.0
20260506232507 5 293 1.6 4.8 0.03 2.36 2.03 96 1002.0
20260506232007 5 310 1.6 4.8 0.03 2.36 2.03 96 1001.9
20260506231507 5 346 0.0 3.2 0.03 2.36 2.03 96 1001.8
20260506231007 5 38 0.0 3.2 0.03 2.36 2.03 96 1001.7
20260506230506 5 29 0.0 4.8 0.00 2.34 2.01 96 1001.8
20260506230006 5 69 0.0 4.8 0.00 2.34 2.01 96 1001.7
20260506225509 6 344 0.0 1.6 0.00 2.34 2.01 96 1001.9
20260506225006 5 326 0.0 3.2 0.00 2.34 2.01 96 1002.0
20260506224506 5 325 0.0 3.2 0.00 2.34 2.01 96 1002.0
20260506224006 5 355 0.0 1.6 0.00 2.34 2.01 96 1002.0
20260506223505 5 355 0.0 3.2 0.00 2.34 2.01 96 1001.9
20260506223006 5 355 0.0 3.2 0.00 2.34 2.01 96 1001.8
20260506222506 5 336 0.0 3.2 0.00 2.34 2.01 96 1001.8
20260506222006 5 331 1.6 8.0 0.00 2.34 2.01 96 1001.9
20260506221507 5 325 0.0 8.0 0.00 2.34 2.01 96 1001.9
20260506221007 5 275 1.6 8.0 0.00 2.34 2.01 96 1002.1
20260506220505 5 306 3.2 6.4 0.00 2.34 2.01 96 1002.0
20260506220007 6 355 1.6 8.0 0.03 2.34 2.01 96 1001.8
20260506215503 6 303 3.2 8.0 0.03 2.34 2.01 96 1001.9
20260506215006 6 323 1.6 4.8 0.03 2.34 2.01 96 1001.9
20260506214503 6 292 0.0 6.4 0.05 2.34 2.01 96 1001.7
20260506214002 6 30 0.0 9.7 0.05 2.34 2.01 96 1001.7
20260506213502 6 290 1.6 9.7 0.05 2.34 2.01 96 1001.8
20260506213003 6 321 1.6 4.8 0.08 2.34 2.01 96 1001.7
20260506212506 6 188 0.0 8.0 0.08 2.34 2.01 96 1001.5
20260506212004 6 351 1.6 8.0 0.10 2.34 2.01 96 1001.5
20260506211502 6 329 0.0 4.8 0.10 2.34 2.01 96 1001.4
20260506211003 6 276 0.0 4.8 0.10 2.34 2.01 96 1001.2
20260506210501 6 336 0.0 3.2 0.13 2.49 2.01 97 1001.4
20260506210002 6 336 0.0 3.2 0.10 2.46 1.98 96 1001.6
20260506205502 6 343 0.0 6.4 0.10 2.46 1.98 96 1001.7
20260506205002 6 336 3.2 6.4 0.10 2.46 1.98 96 1001.8
20260506204503 6 355 1.6 6.4 0.08 2.44 1.96 96 1001.7
20260506204001 6 329 1.6 6.4 0.08 2.44 1.96 96 1001.7
20260506203501 6 349 0.0 4.8 0.08 2.44 1.96 96 1001.6
20260506203001 6 301 0.0 4.8 0.05 2.41 1.93 96 1001.6
20260506202501 6 311 1.6 3.2 0.05 2.41 1.93 96 1001.6
20260506202001 6 300 0.0 4.8 0.05 2.39 1.91 96 1001.5
20260506201500 6 278 1.6 4.8 0.05 2.39 1.91 96 1001.6
20260506201059 6 322 0.0 4.8 0.05 2.39 1.91 96 1001.5
20260506200559 6 298 0.0 6.4 0.03 2.36 1.88 96 1001.5
20260506200146 6 328 3.2 6.4 0.03 2.49 1.88 96 1001.5
20260506195559 6 343 0.0 8.0 0.05 2.49 1.88 96 1001.5
20260506195100 6 350 1.6 8.0 0.05 2.49 1.88 96 1001.4
20260506194700 6 313 1.6 9.7 0.05 2.49 1.88 96 1001.4
20260506194059 6 305 3.2 9.7 0.08 2.49 1.88 96 1001.2
20260506193558 6 18 1.6 6.4 0.08 2.49 1.88 96 1001.2
20260506193057 6 5 1.6 6.4 0.08 2.49 1.88 96 1001.1
20260506192557 6 325 1.6 8.0 0.08 2.49 1.88 97 1001.2
20260506192058 6 321 3.2 8.0 0.05 2.46 1.85 97 1001.1
20260506191600 6 312 3.2 6.4 0.05 2.46 1.85 96 1001.1
20260506191058 6 10 1.6 4.8 0.05 2.46 1.85 96 1000.9
20260506190557 6 39 0.0 4.8 0.08 2.46 1.85 97 1001.0
20260506190056 6 41 1.6 4.8 0.08 3.07 1.85 97 1001.2
20260506185556 5 85 1.6 3.2 0.05 3.05 1.83 96 1001.2
20260506185055 5 202 0.0 3.2 0.05 3.05 1.83 96 1001.3
20260506184555 5 340 0.0 3.2 0.03 3.02 1.80 96 1001.4
20260506184053 5 337 0.0 8.0 0.05 3.02 1.80 96 1001.5
20260506183553 5 244 1.6 8.0 0.05 3.02 1.80 96 1001.6
20260506183053 5 332 3.2 6.4 0.05 3.02 1.80 96 1001.7
20260506182552 5 346 1.6 6.4 0.08 3.02 1.80 96 1001.5
20260506182055 5 48 1.6 6.4 0.10 3.02 1.80 96 1001.6
20260506181552 5 355 1.6 6.4 0.10 3.02 1.80 96 1001.7
20260506181053 5 295 1.6 8.0 0.13 3.02 1.80 96 1001.7
20260506180552 5 342 3.2 8.0 0.10 3.00 1.78 96 1001.9
20260506180100 5 338 3.2 6.4 0.10 3.00 1.78 96 1001.7
20260506175553 5 288 1.6 8.0 0.10 3.00 1.78 96 1001.8
20260506175050 5 5 1.6 8.0 0.13 3.00 1.78 96 1001.8
20260506174550 5 263 3.2 8.0 0.13 3.00 1.78 96 1001.9
20260506174050 5 298 3.2 8.0 0.13 2.97 1.75 96 1001.9
20260506173550 5 321 1.6 8.0 0.13 2.97 1.75 96 1001.8
20260506173106 5 13 3.2 8.0 0.15 2.97 1.75 96 1001.9
20260506172553 5 306 3.2 6.4 0.15 2.92 1.73 96 1001.9
20260506172051 5 330 3.2 6.4 0.13 2.90 1.70 96 1001.9
20260506171558 5 355 1.6 6.4 0.15 2.90 1.70 96 1001.8
20260506171050 5 323 3.2 4.8 0.15 2.87 1.68 96 1001.8
20260506170550 5 245 1.6 6.4 0.15 2.87 1.68 96 1001.9
20260506170049 5 355 1.6 6.4 0.18 2.87 1.68 96 1001.9
20260506165549 5 5 1.6 8.0 0.20 2.87 1.68 96 1002.0
20260506165049 5 344 1.6 8.0 0.20 2.84 1.65 96 1002.0
20260506164549 5 344 1.6 4.8 0.23 2.84 1.65 96 1002.0
20260506164051 5 306 1.6 4.8 0.23 2.84 1.63 96 1002.1
20260506163548 5 355 1.6 8.0 0.25 2.84 1.63 96 1002.1
20260506163050 5 329 1.6 8.0 0.23 2.82 1.60 96 1002.1
20260506162551 5 323 3.2 8.0 0.25 2.79 1.57 96 1002.1
20260506162051 5 360 1.6 8.0 0.28 2.79 1.57 95 1002.3
20260506161554 5 31 3.2 4.8 0.28 2.77 1.55 96 1002.2
20260506161047 5 345 1.6 6.4 0.28 2.74 1.52 96 1002.1
20260506160548 5 43 0.0 6.4 0.30 2.74 1.52 96 1002.1
20260506160050 5 111 0.0 4.8 0.30 2.72 1.50 96 1002.3
20260506155548 5 355 0.0 4.8 0.28 2.69 1.45 96 1002.3
20260506155046 5 332 1.6 6.4 0.28 2.67 1.42 96 1002.5
20260506154546 5 316 1.6 6.4 0.25 2.64 1.42 96 1002.4
20260506154046 5 279 1.6 6.4 0.25 2.62 1.40 96 1002.3
20260506153545 5 13 0.0 6.4 0.23 2.59 1.37 95 1002.2
20260506153045 5 331 3.2 6.4 0.23 2.57 1.35 96 1002.5
20260506152544 5 306 1.6 6.4 0.20 2.54 1.32 96 1002.4
20260506152046 5 9 0.0 8.0 0.20 2.51 1.30 96 1002.2